Regional Weather Roundup
Issued by NWS

Home | Current Version | Previous Version | Text Only | Print | Product List | Glossary Off
Versions: 1 2 3 4 5 6 7 8 9 10 11 12 13 14 15 16 17 18 19 20 21 22 23 24 25 26 27 28 29 30 31 32 33 34 35 36 37 38 39 40 41 42 43 44 45 46 47 48 49 50

909
ASUS43 KIND 250209
RWRIN

WEATHER ROUNDUP FOR INDIANA
NATIONAL WEATHER SERVICE INDIANAPOLIS IN
1000 PM EDT WED MAY 24 2017

NOTE: "FAIR" INDICATES FEW OR NO CLOUDS BELOW 12,000 FEET WITH NO
SIGNIFICANT WEATHER AND/OR OBSTRUCTIONS TO VISIBILITY.

* - STATION DOES NOT REPORT WEATHER SUCH AS PRECIPITATION OR FOG.

+ - STATION NOT QUALITY CONTROLLED BY THE NATIONAL WEATHER SERVICE.
    USE DATA WITH CAUTION...ESPECIALLY DEWPOINT AND RELATIVE
    HUMIDITY OBSERVATIONS.

INZ001>003-010>013-019-020-250300-
NORTHWEST INDIANA

CITY           SKY/WX    TMP DP  RH WIND       PRES   REMARKS
GARY /AIRPORT/ LGT RAIN  52  50  93 NW9       29.55S
KNOX *+        CLOUDY    54  54 100 N8        29.49F
LA PORTE +     CLOUDY    52  52  99 NW7       29.51F FOG
MICHIGAN CITY+ DRIZZLE   50  50 100 W3        29.53S
MONTICELLO +   CLOUDY    57  56  95 N10       29.46F
RENSSELAER +   LGT RAIN  52  50  93 NW10G16   29.50F
VALPARAISO     CLOUDY    51  50  96 NW8       29.52S FOG

$$

LMZ046-743>745-250300-
SOUTHERN LAKE MICHIGAN

STATION/POSITION TIME  TEMP    WIND        PRES    WAVE
                       AIR SEA DIR/SP/G            HT
                 (UTC) (F)     (DEG/KT/KT) (MB)    (FT)
BURNS HARBOR     0140   50     320/  7/  9 1000.7S
MICHIGAN CITY    0140   51     300/  3/  4   N/A
5NW MICH CITY    0200   51 53  340/  4/  8   N/A     4

$$

INZ004-005-014>016-021>024-250300-
NORTH CENTRAL INDIANA

CITY           SKY/WX    TMP DP  RH WIND       PRES   REMARKS
GOSHEN         LGT RAIN  59  55  87 N13       29.47F
LOGANSPORT +   CLOUDY    57  54  88 N8        29.46S
PERU/GRISSOM   CLOUDY    59  59 100 N10       29.43F
ROCHESTER +    RAIN     N/A N/A N/A N7        29.46F
SOUTH BEND     CLOUDY    58  58 100 N7        29.50F
WARSAW +       RAIN      57  55  94 N9        29.46F

$$

INZ006>009-017-018-025>027-250300-
NORTHEAST INDIANA

CITY           SKY/WX    TMP DP  RH WIND       PRES   REMARKS
ANGOLA *+      CLOUDY    57  45  62 N6        29.46F
AUBURN +       DRIZZLE   59  55  88 N12       29.45F
FORT WAYNE     LGT RAIN  59  57  93 N14       29.41F
HUNTINGTON +   RAIN      58  56  95 N10       29.41F

$$

INZ028-029-035-036-043>045-051>053-250300-
WEST CENTRAL INDIANA

CITY           SKY/WX    TMP DP  RH WIND       PRES   REMARKS
CRAWFORDSVL +  CLOUDY    56  56  99 NW9       29.46S
GREENCASTLE +  LGT RAIN  55  54  94 N8        29.46S
LAFAYETTE      CLOUDY    57  55  93 N14G20    29.46F
TERRE HAUTE    LGT RAIN  57  54  89 NW12      29.48R

$$

INZ030>032-037>040-046>048-054>057-064-065-250300-
CENTRAL INDIANA

CITY           SKY/WX    TMP DP  RH WIND       PRES   REMARKS
CP ATTERBURY + CLOUDY    59  55  88 W6        29.42S
COLUMBUS       CLOUDY    59  55  88 NW14      29.41S
FISHERS *+     CLOUDY    57  57 100 NW8       29.42
FRANKFORT +    RAIN      61  59  93 N10       29.47S
GREENWOOD *+   CLOUDY    60  56  87 N13       29.42F
INDIANAPOLIS   CLOUDY    59  56  89 N13       29.43S
-EAGLE CREEK   CLOUDY    60  56  86 N14       29.43S
KOKOMO +       CLOUDY    59  57  93 N12       29.44S
MARION +       CLOUDY    57  55  94 NE14      29.42S
SHELBYVILLE    CLOUDY    61  56  83 NW10      29.39F
ZIONSVILLE +   CLOUDY    57  55  94 N12       29.44S

$$

INZ033-034-041-042-049-050-058-059-250300-
EAST CENTRAL INDIANA

CITY           SKY/WX    TMP DP  RH WIND       PRES   REMARKS
MUNCIE         LGT RAIN  59  56  89 N12       29.39F
RICHMOND +     CLOUDY    55  55 100 N12       29.37F

$$

INZ060-061-067>069-081>083-085>088-250300-
SOUTHWEST INDIANA

CITY           SKY/WX    TMP DP  RH WIND       PRES   REMARKS
EVANSVILLE     LGT RAIN  59  55  87 W9        29.51S
HUNTINGBURG *+ LGT RAIN  57  56  96 NW8       29.48S
WASHINGTON +   LGT RAIN  58  56  94 W8        29.47S

$$

INZ062-063-066-070>080-084-089>092-250300-
SOUTH CENTRAL AND SOUTHEAST INDIANA

CITY           SKY/WX    TMP DP  RH WIND       PRES   REMARKS
BLOOMINGTON    LGT RAIN  58  55  90 NW7       29.44S
NORTH VERNON + CLOUDY    59  57  94 W6        29.40S
SEYMOUR +      LGT RAIN  59  59 100 W9        29.41S

$$





USA.gov is the U.S. government's official web portal to all federal, state and local government web resources and services.